Regional Weather Roundup
Issued by NWS Sterling, VA

Home | Current Version | Previous Version | Text Only | Print | Product List | Glossary Off
Versions: 1 2 3 4 5 6 7 8 9 10 11 12 13 14 15 16 17 18 19 20 21 22 23 24 25 26 27 28

000
ASUS41 KLWX 161011
RWRLWX

REGIONAL WEATHER ROUNDUP
NATIONAL WEATHER SERVICE BALTIMORE MD/WASHINGTON DC
500 AM EST TUE JAN 16 2018

Note: "FAIR" indicates few or no clouds below 12,000 feet
with no significant weather and/or obstructions to visibility.
 TC=TEMPERATURE CELSIUS

 * =Non NWS site. Station does not report precipitation (e.g. rain,
    snow, etc.), thunder, or fog.

DCZ001-MDZ009-015-VAZ040>042-051-053>054-161100-
WASHINGTON METRO

CITY           SKY/WX    TMP DP  RH WIND       PRES   REMARKS
WASHINGTON NAT CLOUDY    31  28  89 S3        30.46S
DULLES         CLOUDY    26  24  92 CALM      30.44S
ANDREWS AFB    CLOUDY    28  27  95 CALM      30.44R
FT BELVOIR     CLOUDY    30  26  87 CALM      30.46S
QUANTICO       CLOUDY    27  25  92 CALM      30.48R
COLLEGE PARK*  CLOUDY    29  26  88 CALM      30.46R
LEESBURG*      CLOUDY    30  27  86 CALM      30.44S
MANASSAS*      FAIR      22  20  92 CALM      30.45F
GAITHERSBURG*  CLOUDY    28  25  88 CALM      30.43S

$$

MDZ006>007-011-014-161100-
BALTIMORE METRO

CITY           SKY/WX    TMP DP  RH WIND       PRES   REMARKS
BWI AIRPORT    CLOUDY    29  25  85 CALM      30.46R
MD SCIENCE CTR   N/A     31  27  85 MISG      30.46S
MARTIN STATE   CLOUDY    30  30 100 CALM      30.49R FOG
ANNAPOLIS      FOG       30  30 100 CALM      30.46S VSB 3/4
FORT MEADE*    CLOUDY    28  27  93 CALM      30.49R

$$

MDZ012-015-019>023-161100-
MARYLAND EASTERN SHORE

CITY           SKY/WX    TMP DP  RH WIND       PRES   REMARKS
OCEAN CITY     FAIR      28  28 100 NW7       30.45R WCI  21
SALISBURY      FAIR      26  25  96 NW5       30.45S WCI  20
BAY BRIDGE AP* CLOUDY    28  27  93 SE6       30.47S FOG     WCI  22
CAMBRIDGE*     CLOUDY    30  25  80 N6        30.47R WCI  24
EASTON*        CLOUDY    31  25  78 CALM      30.50S

$$

MDZ017>025-161100-
SOUTHERN MARYLAND

CITY           SKY/WX    TMP DP  RH WIND       PRES   REMARKS
PATUXENT RIVER FOG       29  29 100 CALM      30.47R VSB 3/4
ST INIGOES     CLOUDY    30  29  96 CALM      30.47R FOG
LEONARDTOWN*   CLOUDY    30  28  93 CALM      30.48R

$$

MDZ003>005-161100-
NORTH CENTRAL MARYLAND

CITY           SKY/WX    TMP DP  RH WIND       PRES   REMARKS
FREDERICK*     CLOUDY    30  25  80 CALM      30.47F
HAGERSTOWN APT CLOUDY    27  22  81 SE3       30.39F
WESTMINSTER*   CLOUDY    28  27  93 CALM      30.41R

$$

MDZ501>502-161100-
WESTERN MARYLAND

CITY           SKY/WX    TMP DP  RH WIND       PRES   REMARKS
OAKLAND*       CLOUDY    23  23 100 NW3       30.23R
CUMBERLAND*    CLOUDY   N/A N/A N/A CALM      30.43S

$$

VAZ025>031-161100-
SHENANDOAH VALLEY

CITY           SKY/WX    TMP DP  RH WIND       PRES   REMARKS
WINCHESTER*      N/A    N/A N/A N/A MISG        N/A
FRONT ROYAL*   FAIR      23  19  86 MISG      30.37F
LURAY*         FAIR      25  21  86 CALM      30.37F
NEW MARKET*    FAIR      22  16  76 CALM      30.36F
STAUNTON*      FAIR      23  13  67 CALM      30.37F
WAYNESBORO*    FAIR      22  11  63 CALM      30.35S

$$

WVZ021-048>050-054>055-161100-
EASTERN WEST VIRGINIA PANHANDLE

CITY           SKY/WX    TMP DP  RH WIND       PRES   REMARKS
MARTINSBURG    CLOUDY    25  21  85 CALM      30.39F
PETERSBURG*    CLOUDY    20  16  83 CALM      30.37S

$$

VAZ036>039-050-161100-
CENTRAL FOOTHILLS

CITY           SKY/WX    TMP DP  RH WIND       PRES   REMARKS
CHARLOTTESVILL FAIR      24  15  68 CALM      30.40F
CULPEPER*      FAIR      25  22  91 CALM      30.44F
ORANGE*        FAIR      19  18  93 CALM      30.42F
GORDONSVILLE*  FAIR      20  20  98 MISG      30.42S
WARRENTON*     CLOUDY    26  23  87 CALM      30.43F FOG

$$

VAZ055>057-161100-
NORTH AND CENTRAL PIEDMONT

CITY           SKY/WX    TMP DP  RH WIND       PRES   REMARKS
FREDERICKSBRG* CLOUDY    27  27 100 S5        30.46F WCI  22
STAFFORD*      CLOUDY    27  27 100 CALM      30.50S

$$

NCZ024-NYZ072-PAZ021-071-VAZ022-071-161100-
OTHER REGIONAL OBSERVATIONS

CITY           SKY/WX    TMP DP  RH WIND       PRES   REMARKS
NEW YORK CITY  CLOUDY    25  20  81 N3        30.51F
PHILADELPHIA   CLOUDY    30  23  75 E7        30.47F WCI  23
PITTSBURGH     LGT SNOW  26  23  88 SW6       30.32R FOG     WCI  19
ROANOKE        FAIR      22  32 100 CALM      30.40F
RICHMOND       CLOUDY    27  25  92 CALM      30.47R FOG
RALEIGH        FAIR      21  16  81 CALM      30.45S

$$

ANZ530>537-161100-
MARINE OBSERVATIONS

STATION/POSITION TIME  TEMP    WIND        PRES
                       AIR SEA DIR/SP/G
                 (UTC) (F)     (DEG/KT/KT) (MB)
THOMAS PT LIGHT  1000   28 32   80/  5/  5   N/A
BALT KEY BRIDGE  0942   28      90/  4/  4 1031.5F
COVE POINT       0942   29     360/  6/  6 1032.2R
LEWISETTA        0942   30 32  320/  4/  4 1031.8R
SOLOMONS ISLAND  0942   29 34   10/  3/  3 1031.2S
PINEY POINT      0942          110/  1/  2   N/A

$$





USA.gov is the U.S. government's official web portal to all federal, state and local government web resources and services.